Regional Weather Roundup
Issued by NWS Grand Forks, ND

Home | Current Version | Previous Version | Text Only | Print | Product List | Glossary On
Versions: 1 2 3 4 5 6 7 8 9 10 11 12 13 14 15 16 17 18 19 20 21 22 23 24 25 26 27 28 29 30 31 32 33 34 35 36 37 38 39 40 41 42 43 44 45 46 47 48 49 50
000
ASUS43 KFGF 292331
RWRFGF
PRAIRIE TO PINES  WEATHER ROUNDUP
NATIONAL WEATHER SERVICE EASTERN NORTH DAKOTA/GRAND FORKS ND
600 PM CDT MON MAY 29 2017

 **SATELLITE DATA USED TO AUGMENT SKY COVER AT AUTOMATED STATIONS**
 *****  WEATHER ACROSS EASTERN NORTH DAKOTA  *****

CITY           SKY/WX    TMP DP  RH WIND       PRES   REMARKS
GRAND FORKS    PTSUNNY   54  46  74 N15G21    29.89R
GRAND FRKS AFB CLOUDY    53  47  80 N9        29.90R
DEVILS LAKE    CLOUDY    54  44  69 NW18G25   29.94S
FARGO          LGT RAIN  55  48  77 NW18      29.90R
WAHPETON ARPT  MOCLDY    59  41  51 NW20G29   29.90F
$$

 ***** WEATHER ACROSS CENTRAL AND WESTERN NORTH DAKOTA  *****

CITY           SKY/WX    TMP DP  RH WIND       PRES   REMARKS
BISMARCK       CLOUDY    64  36  35 NW20G26   30.01F
MINOT          CLOUDY    64  34  32 NW25G33   29.98S
JAMESTOWN      CLOUDY    58  42  55 NW20G26   29.94F
MINOT AFB      PTSUNNY   63  36  36 N23G29    29.97S
GARRISON         N/A     63  35  35 NW25G38   29.99F
WILLISTON      FAIR      70  30  22 NW22G29   30.06F
DICKINSON      FAIR      64  28  25 NW22G29   30.05F
HETTINGER      PTSUNNY   62  31  31 NW17G28   30.08S
$$

 *****  OTHER AIRPORT OBSERVATIONS IN OUR AREA  *****

CITY           SKY/WX    TMP DP  RH WIND       PRES   REMARKS
WALHALLA       NOT AVBL
GRAFTON AIRPOR CLOUDY    50  45  81 NW18G26   29.91S
VALLEY CITY AR CLOUDY    57  45  62 NW16G24   29.95S
CANDO          NOT AVBL
CAVALIER APRT  MOCLDY    48  45  87 NW16G28   29.90R
GWINNER        MOCLDY    59  41  51 MISG      29.93F
SHEYENNE NWR     N/A     60  44  55 NW12      29.95S
ROLLA          CLOUDY    52  45  76 NW18G26   29.95S
 ***** THE ABOVE OBSERVATIONS ARE NON NWS ARE NOT QUALITY
       CONTROLLED AND MAY MIS-REPORT RAIN FOR SNOW...
$$

  *****  WEATHER ACROSS NORTHERN MINNESOTA  *****

CITY           SKY/WX    TMP DP  RH WIND       PRES   REMARKS
FLAG ISLAND    CLOUDY    48  37  66 NW22      29.78S
WARROAD        CLOUDY    50  39  66 NW12G18   29.81S
ROSEAU         CLOUDY    50  41  71 NW14      29.82R
HALLOCK        LGT RAIN  48  45  87 N22G28    29.87S
THF RVR FALLS  CLOUDY    48  45  87 NW18      29.86S
BAUDETTE       CLOUDY    52  39  61 NW17G25   29.78S
WASKISH        CLOUDY    54  43  66 NW16G25   29.79F
CROOKSTON      CLOUDY    54  45  71 NW18G24   29.88S
STEPHEN NDAWN    N/A     52  43  71 NW21        N/A
GREENBUSH NDAW   N/A     48  43  81 NW16        N/A
$$
  *****  WEATHER ACROSS CENTRAL AND WEST MINNESOTA  *****

CITY           SKY/WX    TMP DP  RH WIND       PRES   REMARKS
FOSSTON        CLOUDY    50  45  81 NW16G24   29.86S
BEMIDJI        CLOUDY    53  44  73 NW14G20   29.81S
PARK RAPIDS    CLOUDY    58  45  62 NW17      29.83F
ELBOW LAKE     CLOUDY    55  47  74 NW13      29.90F
WADENA         CLOUDY    54  46  76 W9        29.85F
DETROIT LAKES  PTSUNNY   54  46  76 NW12      29.88S
MOORHEAD       LGT RAIN  54  46  76 NW14G21   29.90R
FERGUS FALLS   PTSUNNY   55  46  71 NW16      29.88S
MORRIS MN      PTSUNNY   55  46  71 NW16G25   29.90F
STAPLES        CLOUDY    55  46  71 W12       29.85S
$$
  *****  WEATHER ELSEWHERE ACROSS MINNESOTA  *****

CITY           SKY/WX    TMP DP  RH WIND       PRES   REMARKS
DULUTH         CLOUDY    55  46  71 NW15G26   29.75R
INTRNTL FALLS  CLOUDY    53  39  59 NW12G22   29.75S
ELY            CLOUDY    52  46  82 W9G22     29.72R
CLOQUET        CLOUDY    55  43  62 W16G22    29.77R
WHEATON        FAIR      57  46  67 NW12      29.93F
BRAINERD       CLOUDY    57  44  62 W9        29.83S
HIBBING        CLOUDY    53  46  77 NW10      29.76S
ALEXANDRIA     CLOUDY    53  48  83 NW15      29.90R
SAINT CLOUD    CLOUDY    59  46  62 NW12G21   29.85S
MINNEAPOLIS    PTSUNNY   62  46  55 NW23G31   29.83R
$$

  *****  WEATHER ACROSS SOUTH DAKOTA  *****

CITY           SKY/WX    TMP DP  RH WIND       PRES   REMARKS
SIOUX FALLS    PTSUNNY   65  45  48 NW22G28   29.98S
BROOKINGS      PTSUNNY   58  48  69 NW12      29.98R
WATERTOWN      CLOUDY    60  42  51 NW16G29   29.95F
HURON          FAIR      66  39  37 NW16G24   29.97F
SISSETON         N/A     59  49  69 NW14      29.92S
ABERDEEN       PTSUNNY   65  36  34 NW22G32   29.97F
MITCHELL       FAIR      68  40  35 W16       30.00F
PIERRE         FAIR      69  33  26 NW16G35   30.01F
MOBRIDGE       FAIR      68  35  29 NW21      30.00S
RAPID CITY     FAIR      70  28  21 N20G33    30.09F
$$

  *****  SOME WEATHER IN NEARBY STATES *****

CITY           SKY/WX    TMP DP  RH WIND       PRES   REMARKS
GLASGOW MT     FAIR      71  27  19 N14       30.10F
GREAT FALLS MT FAIR      77  40  26 VRB5      30.11F
CHEYENNE WY    FAIR      59  41  51 S5        30.23F
SCOTTSBLUFF NE FAIR      73  32  22 N22G29    30.13F
OMAHA NE       FAIR      75  38  26 NW21G29   29.98F
DES MOINES IA  FAIR      73  39  29 W16       29.92F
DAVENPORT IA   FAIR      74  40  29 W23G31    29.87S
CHICAGO IL     PTSUNNY   73  43  33 W21G26    29.84R
EAU CLAIRE WI  FAIR      60  51  72 W5        29.78S
LA CROSSE WI   FAIR      66  52  60 W13       29.81F
$$

  *****  SOME NATIONAL WEATHER *****

CITY           SKY/WX    TMP DP  RH WIND       PRES   REMARKS
LA GUARDIA NY  CLOUDY    57  52  83 NE9       30.06R
RALEIGH NC     PTSUNNY   81  66  60 CALM      29.97S
ATLANTA GA     PTSUNNY   75  69  81 W3        30.01F
NEW ORLEANS LA CLOUDY    82  71  69 N6        30.01S
OKLAHOMA CITY  FAIR      86  43  22 CALM      29.99F
ALBUQUERQUE NM PTSUNNY   70  36  28 NW21G30   30.17R
SALT LAKE CITY FAIR      84  36  18 N7        30.04F
LOS ANGELES CA FAIR      66  56  70 W14       29.89F
BOISE ID       FAIR      87  32  14 S7        29.99F
SEATTLE WA     FAIR      70  55  59 VRB7      29.95F
$$

*** WEATHER ACROSS MANITOBA...SASKATCHEWAN AND ONTARIO ***
                ***ONTARIO***

CITY           SKY/WX    TMP DP  RH WIND       PRES   REMARKS
GERALDTON      PTSUNNY   59  50  72 W3        29.51F
THUNDER BAY    LGT RAIN  55  54  94 W9        29.59R
SIOUX LOOKOUT  LGT RAIN  50  48  93 NW13      29.66R
TORONTO        PTSUNNY   66  54  63 NW16G31   29.82R
BIG TROUT LK   CLOUDY    45  41  87 NW10      29.61S
PICKLE LAKE    LGT RAIN  50  50 100 NW9       29.59R FOG
DRYDEN         CLOUDY    52  45  76 W12G20    29.70R
KENORA         CLOUDY    48  37  66 W10       29.76S
$$
                *** MANITOBA***

CITY           SKY/WX    TMP DP  RH WIND       PRES   REMARKS
BRANDON        PTSUNNY   52  41  66 N20G25    29.95R
DAUPHIN        LGT RAIN  48  41  76 N18G24    29.98S
ISLAND LAKE    LGT RAIN  43  41  93 NW13G22   29.79R FOG
PILOT MOUND      N/A     48  43  81 N14         N/A
THE PAS        CLOUDY    46  39  76 N15G22    30.03R
THOMPSON       CLOUDY    46  39  76 NW10      29.93S
WINNIPEG       CLOUDY    46  41  81 NW22G30   29.88R
LYNN LAKE      SUNNY     55  37  50 N16G22    30.07S
CHURCHILL      CLOUDY    36  34  93 N16       29.94S
GILLAM         LGT RAIN  46  32  57 N23G33    29.82R
$$
                ***SASKATCHEWAN***

CITY           SKY/WX    TMP DP  RH WIND       PRES   REMARKS
ESTEVAN        PTSUNNY   66  30  26 N23G38    30.02F
KINDERSLEY     SUNNY     68  30  24 N13G21    30.13F
LLOYDMINSTER   SUNNY     64  32  29 NE13      30.17S
PRINCE ALBERT  MOSUNNY   64  34  32 N14G26    30.10S
REGINA         MOSUNNY   66  27  22 N21G28    30.06S
YORKTON        CLOUDY    57  37  47 N24G31    30.02S
N. BATTLEFORD  SUNNY     66  25  20 N13G21    30.15F
LA RONGE       MOSUNNY   64  32  29 N14       30.14F
SASKATOON      SUNNY     66  25  20 N15G21    30.11F
SWIFT CURRENT  SUNNY     66  27  22 NW10G20   30.12F
$$
NOTE: THESE ARE AUTOMATED STATIONS WITH LIMITED QUALITY CONTROL
      "FAIR" INDICATES FEW OR NO CLOUDS BELOW 12,000 FEET WITH NO
      SIGNIFICANT WEATHER AND/OR OBSTRUCTIONS TO VISIBILITY.
      SKY/WX - SKY CONDITION AND SIGNIFICANT WEATHER.
      TMP - AIR TEMPERATURE.    DP   - DEWPOINT TEMPERATURE.
      RH  - RELATIVE HUMIDITY.  PRES - PRESSURE.
      HX  - HEAT INDEX.         WCI  - WIND CHILL INDEX.
$



USA.gov is the U.S. government's official web portal to all federal, state and local government web resources and services.